User: anonymous   Login
Location: Unspecified
(0.0000°N, 0.0000°E)
Time: 01:49:41
(UTC+00:00)
Language:

STARLINK-35540 - Orbit

View from above orbital plane
View from above orbital plane
View from above satellite
View from above satellite

Ground track
Ground track

The orbit is defined by the following mean orbital elements,

1 66151U          26145.19716737 +.00000000 +00000-0 +80109-3 0 00002
2 66151  53.1599  66.6220 0001180  88.2293 271.8844 15.34402794    00
Epoch (UTC): 25 May 2026 04:43:55
Eccentricity: 0.0001180
inclination: 53.1599°
perigee height: 462 km
apogee height: 464 km
right ascension of ascending node: 66.6220°
argument of perigee: 88.2293°
revolutions per day: 15.34402794
mean anomaly at epoch: 271.8844°

The dashed part of the orbit path shows where the satellite is in the earth's shadow,  

DLR